This demonstration page uses our WeatherBlox Daily Observations layout. Learn more.

Left ArrowRight Arrow

Hourly Observations for February 25, 2020

Temp ( °F °C ) Dew Point ( °F °C ) Humidity (%) Winds ( mph kmh ) Pressure ( in mb ) Visibility ( mi km ) Precip ( " mm )
12:53 am 00:53 Cloudy 22 -5.6 19 -7.2 89 89 W 3 6 30.57 1035 10 16 0.00 0.00
1:53 am 01:53 Cloudy 22 -5.6 19 -7.2 89 89 WSW 5 7 30.59 1036 10 16 0.00 0.00
2:53 am 02:53 Clear 19 -7.2 16 -8.9 88 88 SSW 8 13 30.60 1036 10 16 0.00 0.00
3:53 am 03:53 Clear 15 -9.4 13 -10.6 91 91 S 6 9 30.62 1037 10 16 0.00 0.00
4:53 am 04:53 Clear 16 -8.9 13 -10.6 88 88 SW 3 6 30.65 1038 10 16 0.00 0.00
5:53 am 05:53 Partly Cloudy 17 -8.3 14 -10 88 88 Calm 30.66 1038 10 16 0.00 0.00
6:53 am 06:53 Mostly Clear 12 -11.1 9 -12.8 87 87 S 5 7 30.68 1039 10 16 0.00 0.00
7:53 am 07:53 Sunny 17 -8.3 13 -10.6 84 84 SSE 3 6 30.67 1039 10 16 0.00 0.00
8:53 am 08:53 Mostly Sunny 23 -5 19 -7.2 85 85 Calm 30.66 1038 10 16 0.00 0.00
9:53 am 09:53 Mostly Sunny 28 -2.2 22 -5.6 78 78 VRB 3 6 30.65 1038 10 16 0.00 0.00
10:53 am 10:53 Mostly Sunny 31 -0.6 23 -5 72 72 S 9 15 30.63 1037 10 16 0.00 0.00
11:53 am 11:53 Mostly Cloudy 32 0 21 -6.1 64 64 SW 9 15 30.62 1037 10 16 0.00 0.00
12:53 pm 12:53 Mostly Cloudy 36 2.2 22 -5.6 57 57 SSW 14 22 30.58 1036 10 16 0.00 0.00
1:53 pm 13:53 Mostly Cloudy 35 1.7 21 -6.1 57 57 SW 14 22 30.54 1034 10 16 0.00 0.00
2:53 pm 14:53 Mostly Cloudy 35 1.7 21 -6.1 57 57 SW 10 17 30.53 1034 10 16 0.00 0.00
3:53 pm 15:53 Mostly Sunny 36 2.2 21 -6.1 55 55 SW 13 20 30.51 1033 10 16 0.00 0.00
4:53 pm 16:53 Sunny 36 2.2 21 -6.1 55 55 SSW 10 17 30.48 1032 10 16 0.00 0.00
5:53 pm 17:53 Sunny 31 -0.6 21 -6.1 67 67 ESE 6 9 30.46 1032 10 16 0.00 0.00
6:53 pm 18:53 Clear 27 -2.8 20 -6.7 75 75 ESE 5 7 30.45 1031 10 16 0.00 0.00
7:53 pm 19:53 Clear 27 -2.8 19 -7.2 72 72 S 3 6 30.41 1030 10 16 0.00 0.00
8:53 pm 20:53 Clear 27 -2.8 18 -7.8 69 69 NNW 3 6 30.38 1029 10 16 0.00 0.00
9:53 pm 21:53 Clear 29 -1.7 19 -7.2 66 66 Calm 30.34 1027 10 16 0.00 0.00
10:53 pm 22:53 Clear 26 -3.3 19 -7.2 75 75 SW 10 17 30.32 1027 10 16 0.00 0.00
11:53 pm 23:53 Mostly Clear 29 -1.7 21 -6.1 72 72 SW 14 22 30.27 1025 10 16 0.00 0.00

Powered by AerisWeather